Tracking 27107 objects as of 22-Mar-2023
HD Live streaming from Space Station
objects crossing your sky now

STARLINK-3448

Track STARLINK-3448 now!
10-day predictions
STARLINK-3448 is classified as:


NORAD ID: 51728
Int'l Code: 2022-016Q
Perigee: 546.0 km
Apogee: 547.6 km
Inclination: 53.2 °
Period: 95.4 minutes
Semi major axis: 6917 km
RCS: Unknown
Launch date: February 21, 2022
Source: United States (US)
Launch site: AIR FORCE EASTERN TEST RANGE (AFETR)
Your satellite tracking list
Your tracking list is empty




NASA's NSSDC Master Catalog

Two Line Element Set (TLE):
1 51728U 22016Q   23080.45671252  .00024639  00000-0  15598-2 0  9993
2 51728  53.2147 146.4318 0001157  88.8941 271.2184 15.08862729 59889
Source of the keplerian elements: AFSPC